Regional Weather Roundup
Issued by NWS Charleston, WV

Home | Current Version | Previous Version | Text Only | Print | Product List | Glossary On
Versions: 1 2 3 4 5 6 7 8 9 10 11 12 13 14 15 16 17 18 19 20 21 22 23 24 25 26 27 28 29 30 31 32 33 34 35 36 37 38 39 40 41 42 43 44 45 46 47 48 49 50
000
ASUS41 KRLX 010010
RWRRLX
West Virginia Regional Weather Roundup
National Weather Service Charleston WV
700 PM EST SAT FEB 28 2015

Note: "fair" indicates few or no clouds below 12,000 feet with no
significant weather and/or obstructions to visibility.

WVZ003-010100-
Northern Panhandle of West Virginia

CITY           SKY/WX    TMP DP  RH WIND       PRES   REMARKS
WHEELING       CLEAR     24   2  38 NE6       30.59S
$$

WVZ009-010100-
Northwest West Virginia

CITY           SKY/WX    TMP DP  RH WIND       PRES   REMARKS
PARKERSBURG    MOCLDY    31   4  31 CALM      30.62S
$$

WVZ006-010100-
Western West Virginia

CITY           SKY/WX    TMP DP  RH WIND       PRES   REMARKS
HUNTINGTON     MOCLDY    34  13  41 NE5       30.55S
$$

WVZ015-010100-
West Central West Virginia

CITY           SKY/WX    TMP DP  RH WIND       PRES   REMARKS
CHARLESTON     MOCLDY    36  14  40 CALM      30.55S
$$

WVZ022-031-010100-
North Central West Virginia

CITY           SKY/WX    TMP DP  RH WIND       PRES   REMARKS
CLARKSBURG     CLOUDY    30   4  33 CALM      30.58S
MORGANTOWN     CLOUDY    30   4  33 N3        30.59S
$$

WVZ025-035-042-045-010100-
Southern West Virginia

CITY           SKY/WX    TMP DP  RH WIND       PRES   REMARKS
BECKLEY        PTCLDY    31  14  49 SE10      30.50S
LOGAN          CLOUDY    39  18  41 CALM      30.48S
BLUEFIELD      CLOUDY    35  18  49 SE8       30.50S
LEWISBURG      PTCLDY    32  13  45 E3        30.54F
$$

WVZ047-010100-
Northern Mountains of West Virginia

CITY           SKY/WX    TMP DP  RH WIND       PRES   REMARKS
ELKINS         CLOUDY    30  13  49 CALM      30.54R
$$

WVZ052-010100-
Eastern Panhandle of West Virginia

CITY           SKY/WX    TMP DP  RH WIND       PRES   REMARKS
MARTINSBURG    CLEAR     26   4  38 CALM      30.72R
PETERSBURG     CLEAR     30   7  38 CALM      30.65R
$$



USA.gov is the U.S. government's official web portal to all federal, state and local government web resources and services.